Location: Beverley
(50.2667°N, 107.9667°W)
Time: 18:57:30
(UTC+00:00)

N. Korean satellite - Visible Passes

Search period start: 22 January 2022 00:00
Search period end: 01 February 2022 00:00
Orbit: 447 x 491 km, 97.3° (Epoch: 21 January)

Date Brightness Start Highest point End Pass type
(mag) Time Alt. Az. Time Alt. Az. Time Alt. Az.
22 Jan 6.9 12:26:28 10° NNE 12:30:06 66° ESE 12:30:22 63° SE visible
22 Jan 8.4 14:00:59 10° NNW 14:02:46 13° WNW 14:04:26 10° W visible
23 Jan 9.7 00:39:20 10° SW 00:41:22 15° W 00:43:25 10° NW visible
23 Jan 8.4 11:57:34 10° NNE 12:00:51 30° E 12:01:17 29° ESE visible
23 Jan 7.6 13:30:54 10° N 13:33:52 24° WNW 13:35:21 19° WSW visible
24 Jan 9.6 11:29:12 10° NE 11:31:28 15° E 11:32:11 15° ESE visible
24 Jan 6.7 13:01:20 10° N 13:04:51 48° WNW 13:06:16 30° SW visible
25 Jan 6.6 12:32:03 10° NNE 12:35:43 78° ESE 12:37:11 34° S visible
25 Jan 8.5 14:06:57 10° NW 14:08:19 12° WNW 14:09:41 10° W visible
26 Jan 9.9 00:45:20 10° WSW 00:47:00 13° W 00:48:43 10° WNW visible
26 Jan 8.2 12:03:04 10° NNE 12:06:27 35° E 12:08:06 23° SE visible
26 Jan 7.8 13:36:34 10° NNW 13:39:25 22° WNW 13:42:10 10° WSW visible
27 Jan 9.4 11:34:30 10° NE 11:37:02 18° E 11:39:02 12° SE visible
27 Jan 6.9 13:06:55 10° N 13:10:22 42° WNW 13:13:06 15° SW visible
28 Jan 6.5 12:37:33 10° NNE 12:41:13 89° ESE 12:44:03 16° SSW visible
28 Jan 8.6 14:13:02 10° NW 14:13:43 10° WNW 14:14:25 10° WNW visible
29 Jan 10.1 00:51:19 10° WSW 00:52:31 11° W 00:53:44 10° WNW visible
29 Jan 7.9 12:08:26 10° NNE 12:11:55 40° E 12:15:01 12° SSE visible
29 Jan 8.0 13:42:09 10° NNW 13:44:48 19° WNW 13:47:26 10° WSW visible
30 Jan 9.2 11:39:44 10° NE 11:42:29 20° E 11:45:12 10° SE visible
30 Jan 7.1 13:12:22 10° N 13:15:45 36° WNW 13:19:06 10° SW visible
31 Jan 6.4 12:42:54 10° N 12:46:34 79° WNW 12:50:10 10° SSW visible
